538  
ASUS43 KARX 292210  
RWRARX  
 
HOURLY WEATHER FOR THE UPPER MISSISSIPPI RIVER VALLEY  
NATIONAL WEATHER SERVICE LA CROSSE WI  
400 PM CST SUN JAN 29 2023  
 
NOTE: "FAIR" INDICATES FEW OR NO CLOUDS BELOW 12,000 FEET WITH NO  
SIGNIFICANT WEATER AND/OR S TO VISIBILITY
.  
 
MNZ077-085>088-093>096-292300  
SOUTHEAST MINNESOTA  
 
CITY SKY/WX TMP DP RH WIND PRES REMARKS
 
ROCHESTER SUNNY 2 -7 66 NW12 30.33S WCI -15  
WINONA SUNNY 10 -8 44 N6 30.39S WCI 1  
AUSTIN SUNNY 3 -6 66 NW10 30.36S WCI -12  
ALBERT LEA SUNNY 1 -6 71 NW3 30.37R  
DODGE CENTER N/A 1 -9 60 W9 30.34R WCI -14  
PRESTON SUNNY 4 -8 57 N9 30.33F WCI -10  
OWATONNA SUNNY 1 -8 66 NW10 30.37S WCI -14  
FARIBAULT SUNNY 3 -8 60 W8 30.38S WCI -10  

 
 
WIZ041-042-053>056-061-292300  
SOUTHWEST WISCONSIN  
 
CITY SKY/WX TMP DP RH WIND PRES REMARKS
 
LA CROSSE SUNNY 9 -6 50 N12 30.38R WCI -6  
SPARTA CLEAR 10 -8 44 W9 30.33R WCI -4  
VIROQUA SUNNY 8 -2 62 NW7 30.29S WCI -3  
WIS DELLS PTCLDY 16 2 55 NW7 30.29R WCI 6  
PRAIRIE DU CHI PTSUNNY 13 -1 53 NW6 30.36S WCI 4  
BOSCOBEL PTSUNNY 15 -2 46 W8 30.35R WCI 4  
LONE ROCK PTCLDY 16 0 49 W9 30.33R WCI 4  
PLATTEVILLE FAIR 15 0 50 NW9 30.31R WCI 4  

 
 
WIZ017-030-034>036-043>045-292300  
CENTRAL WISCONSIN  
 
CITY SKY/WX TMP DP RH WIND PRES REMARKS
 
MEDFORD CLEAR 6 -10 48 W12 30.24R WCI -10  
WAUSAU CLEAR 10 -6 48 W10 30.24S WCI -4  
BLACK RVR FLS CLEAR 9 -8 44 NW7 30.34S WCI -2  
WIS RAPIDS CLEAR 10 -7 46 N8 30.30S WCI -2  
MARSHFIELD CLEAR 6 -8 52 NW8 30.27S WCI -7  
MAUSTON FAIR 12 -4 48 NW9 30.31R WCI 0  
CAMP DOUGLAS CLEAR 11 -7 45 W12 30.30R WCI -4  
WAUTOMA CLEAR 14 0 53 W10 30.29F WCI 1  

 
 
IAZ008>011-017>019-029-030-292300  
NORTHEAST IOWA  
 
CITY SKY/WX TMP DP RH WIND PRES REMARKS
 
WATERLOO CLOUDY 7 -5 57 NW15 30.38F WCI -10  
DUBUQUE SUNNY 14 3 61 NW12 30.30R WCI 0  
DECORAH SUNNY 5 -6 61 N12G18 30.33S WCI -11  
MASON CITY PTSUNNY 1 -7 68 NW9 30.39S WCI -14  
CHARLES CITY PTSUNNY 3 -6 66 NW8 30.37F WCI -10  
OELWEIN SUNNY 5 -4 66 NW16 30.36F WCI -14  

 
 
WIND SPEEDS ARE IN MILES PER HOUR.  
 
ABBREVIATIONS USED IN THE REMARKS:  
VSB - VISIBILITY IN STATUTE MILES  
WCI - WIND CHILL INDEX  
HX - HEAT INDEX  
 
 
CLICK HERE TO GO TO PREVIOUS BULLETINS.

The Nexlab WI Page
The Nexlab IA Page
The Nexlab MN Page Main Text Page